Location: Unspecified
(0.0000°N, 0.0000°E)
Time: 10:12:11
(UTC+00:00)

Courier 1B Rocket - Pass Details

Date: 26 May 2026
Orbit: 920 x 1201 km, 28.2° (Epoch: 9 June)

Event Time Altitude Azimuth Distance (km) Brightness Sun altitude
Rises 02:03:40 0° 276° (W) 3,970 - -52.6°
Reaches altitude 10° 02:07:36 10° 294° (WNW) 2,955 - -51.8°
Maximum altitude 02:12:11 18° 334° (NNW) 2,364 - -50.8°
Drops below altitude 10° 02:16:36 10° 14° (NNE) 2,815 - -49.9°
Exits shadow 02:17:05 - 17° (NNE) 2,915 7.8 -49.8°
Sets 02:20:15 0° 33° (NNE) 3,709 8.6 -49.2°
